Volver al catálogo

STARLINK-34801

ActivoComunicacionesVLEO
NORAD 66076·PAYLOAD·🇺🇸 United States

Lanzado Oct 19, 2025 desde Cape Canaveral Space Force Station

Loading…

Próximos Pases (próximas 24 horas)

TLE

ActualizadoSource: CelesTrak SupGP

Época: Sep 15, 2026, 03:09 UTC

1 66076C 25235U   26258.13173611 -.00023020  00000+0 -68015-3 0  2587
2 66076  53.1588  84.8416 0001230  85.9833 244.6084 15.34402115    15

Sigue STARLINK-34801 en tiempo real con AllMySat

Download on the App Store